TimeEST,TemperatureF,Dew PointF,Humidity,Sea Level PressureIn,VisibilityMPH,Wind Direction,Wind SpeedMPH,Gust SpeedMPH,PrecipitationIn,Events,Conditions,WindDirDegrees,DateUTC
12:53 AM,48.0,46.0,93,29.60,4.0,South,8.1,-,0.01,,Overcast,190,2012-12-16 05:53:00
1:53 AM,48.9,46.9,93,29.59,5.0,SSW,8.1,-,0.02,Rain,Light Rain,200,2012-12-16 06:53:00
2:28 AM,48.2,46.4,93,29.58,5.0,SSW,8.1,-,0.00,Rain,Light Rain,210,2012-12-16 07:28:00
2:36 AM,48.2,46.4,93,29.58,5.0,SSW,8.1,-,0.00,Rain,Light Rain,210,2012-12-16 07:36:00
2:53 AM,48.9,46.9,93,29.60,4.0,SSW,6.9,-,0.01,Rain,Light Rain,210,2012-12-16 07:53:00
3:53 AM,48.9,46.9,93,29.59,3.0,SW,8.1,-,0.03,Rain,Light Rain,220,2012-12-16 08:53:00
4:53 AM,48.9,46.9,93,29.59,4.0,SW,8.1,-,0.04,Rain,Light Rain,220,2012-12-16 09:53:00
5:53 AM,48.9,46.9,93,29.59,6.0,SW,10.4,-,0.02,,Overcast,220,2012-12-16 10:53:00
6:38 AM,48.2,46.4,93,29.57,7.0,SSW,9.2,-,0.00,Rain,Light Rain,210,2012-12-16 11:38:00
6:53 AM,48.9,46.0,90,29.59,7.0,SW,8.1,-,0.00,,Overcast,220,2012-12-16 11:53:00
7:21 AM,48.2,46.4,93,29.58,6.0,SSW,6.9,-,0.00,Rain,Light Rain,210,2012-12-16 12:21:00
7:53 AM,48.2,46.4,93,29.58,6.0,SSW,6.9,-,N/A,,Overcast,210,2012-12-16 12:53:00
8:21 AM,48.2,46.4,93,29.59,3.0,SW,6.9,-,0.00,Rain,Light Rain,220,2012-12-16 13:21:00
8:25 AM,48.2,46.4,93,29.59,2.5,SW,6.9,-,0.00,,Light Drizzle,220,2012-12-16 13:25:00
8:35 AM,48.2,46.4,93,29.59,1.8,SW,6.9,-,0.01,,Light Drizzle,220,2012-12-16 13:35:00
8:47 AM,48.2,46.4,93,29.59,2.0,WSW,12.7,19.6,0.03,,Light Drizzle,240,2012-12-16 13:47:00
8:53 AM,48.0,45.0,89,29.60,2.5,SW,10.4,-,0.03,,Light Drizzle,230,2012-12-16 13:53:00
9:20 AM,48.2,46.4,93,29.59,3.0,SW,11.5,-,0.02,,Light Drizzle,220,2012-12-16 14:20:00
9:53 AM,48.0,45.0,89,29.61,6.0,SW,12.7,-,0.02,,Overcast,230,2012-12-16 14:53:00
10:27 AM,48.2,44.6,87,29.60,6.0,SW,11.5,-,0.00,Rain,Light Rain,230,2012-12-16 15:27:00
10:53 AM,48.9,45.0,86,29.61,7.0,SW,12.7,-,0.00,Rain,Light Rain,220,2012-12-16 15:53:00
11:53 AM,48.9,44.1,83,29.61,9.0,WSW,11.5,-,N/A,,Overcast,250,2012-12-16 16:53:00
12:53 PM,48.0,43.0,83,29.60,8.0,WSW,12.7,-,N/A,,Overcast,250,2012-12-16 17:53:00
1:53 PM,48.0,42.1,80,29.59,10.0,WSW,20.7,26.5,N/A,,Mostly Cloudy,250,2012-12-16 18:53:00
2:53 PM,46.9,41.0,80,29.59,10.0,West,16.1,21.9,N/A,,Overcast,260,2012-12-16 19:53:00
3:50 PM,46.4,41.0,81,29.58,10.0,West,13.8,-,N/A,,Overcast,260,2012-12-16 20:50:00
3:53 PM,46.0,41.0,83,29.60,10.0,West,15.0,-,N/A,,Overcast,260,2012-12-16 20:53:00
4:53 PM,45.0,39.9,82,29.60,10.0,West,13.8,-,N/A,,Overcast,260,2012-12-16 21:53:00
5:53 PM,45.0,39.9,82,29.63,10.0,WSW,8.1,-,N/A,,Overcast,240,2012-12-16 22:53:00
6:09 PM,44.6,39.2,81,29.62,10.0,WSW,9.2,-,N/A,,Overcast,250,2012-12-16 23:09:00
6:53 PM,44.1,41.0,89,29.63,7.0,WSW,6.9,-,0.00,,Overcast,250,2012-12-16 23:53:00
7:12 PM,42.8,41.0,93,29.63,5.0,WSW,8.1,-,0.01,Rain,Light Rain,250,2012-12-17 00:12:00
7:53 PM,43.0,39.9,89,29.65,4.0,West,9.2,-,0.03,Rain,Light Rain,260,2012-12-17 00:53:00
8:09 PM,42.8,39.2,87,29.64,6.0,West,8.1,-,0.00,,Overcast,260,2012-12-17 01:09:00
8:36 PM,42.8,39.2,87,29.64,3.0,WSW,11.5,-,0.00,,Overcast,250,2012-12-17 01:36:00
8:53 PM,42.1,39.9,92,29.66,3.0,WSW,11.5,-,0.00,Rain,Light Rain,250,2012-12-17 01:53:00
9:53 PM,42.1,39.9,92,29.67,5.0,West,8.1,-,0.02,Rain,Light Rain,270,2012-12-17 02:53:00
10:53 PM,41.0,39.0,93,29.68,6.0,West,11.5,-,0.01,,Overcast,270,2012-12-17 03:53:00
11:53 PM,41.0,37.9,89,29.68,6.0,West,11.5,-,0.00,,Overcast,270,2012-12-17 04:53:00